Location: *
(50.8667°S, 179.2667°W)
Time: 06:58:32
(UTC+00:00)

Okean 3 Rocket - Pass Details

Date: 02 October 2023
Orbit: 613 x 642 km, 82.5° (Epoch: 10 December)

Event Time Altitude Azimuth Distance (km) Brightness Sun altitude
Rises 15:57:43 0° 357° (N) 2,885 6.7 -13.8°
Reaches altitude 10° 15:59:55 10° 358° (N) 1,988 5.9 -13.5°
Maximum altitude 16:04:19 74° 82° (E) 656 3.8 -12.8°
Drops below altitude 10° 16:08:47 10° 167° (SSE) 2,023 6.7 -12.2°
Sets 16:11:03 0° 168° (SSE) 2,940 7.5 -11.8°
